#timestamp,LO_Frequency,Hit,StdDev 
1619398815.7,286047001.0,N
1619398835.6,286047000.8,N
1619398855.4,286047000.4,N
1619398875.3,286047002.3,N
1619398895.1,286047002.5,N
1619398896.0,286047002.5,N
1619398945.9,286047002.8,E
1619398955.8,286047000.6,N
1619398975.6,286046998.6,P
1619398995.5,286046999.1,N
1619399015.3,286046999.4,N
1619399035.1,286046999.0,N
1619399055.9,286046998.6,N
1619399075.7,286046998.5,N
1619399095.5,286046998.1,N
1619399115.4,286046998.9,N
1619399135.2,286047000.0,N
1619399155.1,286046999.8,N
1619399156.0,286046999.8,N
1619399175.8,286047000.9,N
1619399195.6,286047000.6,N
1619399215.5,286047001.1,N
1619399235.3,286047001.0,N
1619399255.2,286047000.7,N
1619399275.9,286047001.0,N
1619399295.7,286047000.1,N
1619399315.6,286047000.2,N
1619399335.4,286047001.4,N
1619399355.2,286047004.4,Y
1619399375.1,286047004.1,P
1619399376.0,286047004.1,N
1619399395.8,286047004.3,N
1619399415.7,286047002.0,N
1619399435.5,286047001.3,N
1619399455.3,286047003.4,N
1619399475.2,286047003.7,N
1619399495.0,286047003.6,N
1619399495.9,286047003.6,N
1619399515.8,286047003.0,N
1619399535.6,286047004.1,Y
1619399555.4,286047000.9,P
1619399575.3,286047000.7,N
1619399595.1,286047000.6,N
1619399615.8,286047000.2,N
1619399635.7,286047002.4,N
1619399655.5,286046999.8,N
1619399675.4,286047002.3,N
1619399695.2,286047002.2,N
1619399715.0,286046999.9,N
1619399715.9,286046999.9,N
1619399735.8,286047000.1,N
1619399755.6,286046999.7,N
1619399775.5,286047002.4,N
1619399795.3,286047002.4,N
1619399815.1,286047002.4,N
1619399835.9,286047002.4,N
1619399855.7,286047000.1,N
1619399875.6,286047001.7,N
1619399895.4,286047003.7,Y
1619399915.2,286047001.7,P
1619399935.1,286047002.2,P
1619399936.0,286047002.2,P
1619399955.8,286047001.5,Y
1619399975.7,286046999.9,P
1619399995.5,286046999.9,N
1619400015.3,286047000.6,N
1619400035.2,286047001.0,N
1619400055.0,286047000.8,N
1619400055.9,286047000.8,N
1619400075.7,286046998.2,N
1619400095.6,286047000.1,N
1619400115.4,286047002.8,N
1619400135.3,286047002.6,N
1619400155.1,286046999.8,N
1619400156.0,286046999.8,N
1619400175.8,286047001.4,N
1619400195.7,286047002.3,N
1619400215.5,286047002.3,N
1619400235.3,286047002.4,N
1619400255.2,286047001.8,N
1619400275.0,286047004.0,Y
1619400275.9,286047004.0,P
1619400295.8,286047001.9,N
1619400315.6,286046999.8,N
1619400335.4,286047002.7,N
1619400355.3,286047002.6,N
1619400375.1,286047002.7,N
1619400395.9,286047000.3,N
1619400415.7,286046999.8,N
1619400435.5,286047002.5,N
1619400455.4,286047001.7,N
1619400475.2,286047004.4,Y
1619400495.0,286047002.2,P
1619400496.0,286047002.2,P
1619400515.8,286047002.7,P
1619400535.6,286047002.5,Y
1619400555.5,286047001.2,P
1619400575.3,286046998.5,P
1619400595.1,286046999.0,N
1619400615.9,286046998.8,N
1619400635.7,286046998.7,N
1619400655.6,286046998.3,N
1619400675.4,286047000.8,N
1619400695.2,286047000.0,N
1619400715.1,286047000.9,N
1619400716.0,286047000.9,N
1619400735.8,286046998.2,N
1619400755.7,286046998.2,N
1619400775.5,286046998.7,N
1619400795.3,286046999.9,N
1619400815.2,286047000.3,N
1619400835.0,286047002.5,N
1619400835.9,286047002.5,N
1619400855.7,286046999.8,N
1619400875.6,286046999.8,N
1619400895.4,286047001.8,N
1619400915.3,286047000.1,N
1619400935.1,286046999.9,N
1619400936.0,286046999.9,N
1619400955.8,286047002.6,N
1619400975.7,286047002.5,N
1619400995.5,286047001.7,N
1619401015.3,286047003.8,N
1619401035.2,286047003.9,N
1619401055.0,286047004.3,N
1619401055.9,286047004.3,N
1619401075.8,286047001.7,N
1619401095.6,286047004.0,N
1619401115.4,286047003.1,N
1619401135.3,286047003.7,N
1619401155.1,286047003.5,N
1619401175.9,286047003.5,N
1619401195.7,286047003.1,N
1619401215.5,286047003.4,N
1619401235.4,286047003.6,N
1619401255.2,286047003.0,N
1619401275.0,286047005.6,N
1619401275.9,286047005.6,N
1619401295.8,286047005.1,N
1619401315.6,286047004.6,N
1619401335.5,286047006.9,Y
1619401355.3,286047003.0,P
1619401375.1,286047004.0,P
1619401395.9,286047003.3,P
1619401415.7,286047003.6,Y
1619401435.5,286046998.1,P
1619401455.4,286046998.7,N
1619401475.2,286046998.1,N
1619401495.1,286047000.5,N
1619401496.0,286047000.5,N
1619401515.8,286047000.0,N
1619401535.6,286047002.8,N
1619401555.5,286047002.1,N
1619401575.3,286047002.0,N
1619401595.1,286047001.7,N
1619401615.9,286047004.0,N
1619401635.7,286047003.9,N
1619401655.6,286047004.4,N
1619401675.4,286047001.9,N
1619401695.2,286047002.6,N
1619401715.1,286047002.4,N
1619401716.0,286047002.4,N
1619401735.8,286047002.4,N
1619401755.7,286047001.8,N
1619401775.5,286047002.2,N
1619401795.3,286047004.3,N
1619401815.2,286047004.4,N
1619401835.0,286047002.1,N
1619401835.9,286047002.1,N
1619401855.7,286047001.8,N
1619401875.6,286047004.4,N
1619401895.4,286047003.5,N
1619401915.3,286047003.6,N
1619401935.1,286047006.0,Y
1619401955.8,286047004.0,P
1619401975.7,286047004.0,P
1619401995.5,286047001.5,N
1619402015.4,286047002.2,N
1619402035.2,286047002.0,N
1619402055.0,286047001.7,N
1619402055.9,286047001.7,N
1619402075.8,286047001.4,N
1619402095.6,286047001.5,N
1619402115.5,286047001.4,N
1619402135.3,286047001.6,N
1619402155.1,286047001.9,N
1619402175.9,286047001.7,N
1619402195.7,286047004.4,Y
1619402215.6,286046999.7,P
1619402235.4,286047002.1,N
1619402255.2,286047001.9,N
1619402275.1,286047002.1,N
1619402276.0,286047002.1,N
1619402295.8,286047001.5,N
1619402315.6,286047003.8,Y
1619402335.5,286047003.0,P
1619402355.3,286047003.3,P
1619402375.2,286047004.4,P
1619402395.9,286047002.9,N
